Temperature
12 12 12 12 12 12 12 11 11 11 11 11 11 11 11 11 10 10 11 11 10 10 10 10 9 9 8 7 7 6 5 5 4 4 4 4 4 4 4 3 3 3 3
11 11 11 11 11 11 11 11 11 11 11 10 10 10 10 10 10 10 10 10 10 10 9 9 9 8 7 6 6 5 5 4 4 3 3 3 3 3 3 3 3 3 3
10 10 11 11 11 11 11 10 10 10 10 10 10 10 10 10 10 10 10 9 9 9 9 8 8 7 6 6 5 5 4 4 3 3 3 3 3 3 2 2 2 2 2
10 10 10 10 10 10 10 10 10 9 9 9 9 9 9 9 9 9 9 9 9 8 8 7 7 6 5 5 4 4 3 3 3 3 2 2 2 2 2 2 2 2 2
9 9 9 9 9 9 9 9 9 8 8 8 8 8 8 8 8 8 8 8 8 8 7 6 6 5 5 4 3 3 3 2 2 2 2 2 2 2 2 2 1 1 1
8 8 8 8 8 8 8 8 8 8 8 8 8 8 8 8 8 8 7 7 7 6 6 6 5 4 4 3 3 2 2 2 2 2 1 1 1 1 1 1 1 1 1
7 7 7 7 7 7 7 7 7 7 7 7 7 7 7 7 7 7 6 6 6 6 5 5 4 3 3 2 2 2 2 2 1 1 1 1 1 1 1 1 1 0 0
6 6 6 6 6 6 6 6 6 6 6 6 6 6 6 6 6 6 6 5 5 5 4 4 3 3 2 2 2 2 1 1 1 1 1 1 1 1 1 1 0 0 0
5 5 5 5 5 5 5 5 5 5 5 5 5 5 5 5 5 5 5 5 4 4 4 3 3 2 2 1 1 1 1 1 1 1 1 1 1 0 0 0 0 0 0
4 4 4 4 4 4 5 5 5 5 5 5 4 4 4 4 4 4 4 4 3 3 3 2 2 2 1 1 1 1 1 1 1 1 0 0 0 0 0 0 0 -0 -0
3 3 3 3 3 3 4 4 4 4 4 4 4 4 3 3 3 3 3 3 3 2 2 2 1 1 1 1 0 0 0 -0 -0 0 -0 -0 -0 -0 0 -0 -0 -0 -0
2 2 2 2 3 3 3 3 3 3 3 3 3 3 3 3 2 2 2 2 2 2 2 1 1 0 0 0 0 -0 -0 -0 -0 -0 -0 -0 -0 -0 -0 -0 -0 -0 -0
1 1 1 1 1 2 2 2 2 2 2 2 2 2 2 2 2 2 2 1 1 1 1 0 0 -0 -0 -0 -0 -1 -1 -1 -1 -1 -1 -1 -1 -1 -1 -0 -1 -1 -1
-1 -0 -0 0 0 1 1 1 1 1 2 2 2 2 2 2 2 1 1 1 0 0 0 -0 -1 -1 -1 -1 -1 -1 -1 -1 -1 -1 -1 -1 -1 -1 -1 -1 -1 -1 -1
-1 -1 -1 -1 -1 -1 -0 -0 0 0 1 1 1 1 1 2 2 1 1 1 1 0 -0 -1 -1 -1 -1 -1 -1 -1 -1 -1 -1 -1 -1 -1 -1 -1 -1 -1 -1 -2 -2
-2 -2 -2 -2 -2 -2 -1 -1 -0 -0 -0 0 0 0 1 1 1 1 1 0 0 -0 -1 -1 -1 -1 -1 -1 -1 -1 -1 -1 -1 -1 -1 -1 -1 -2 -2 -2 -2 -2 -2
-3 -3 -3 -3 -3 -2 -2 -2 -1 -1 -1 -0 -0 -0 0 0 0 0 0 -0 -0 -1 -1 -1 -1 -1 -1 -1 -1 -1 -1 -1 -1 -1 -1 -2 -2 -2 -2 -2 -2 -2 -2
-4 -4 -4 -4 -3 -3 -3 -3 -2 -2 -2 -1 -1 -0 -0 -0 -0 -0 -0 -1 -1 -1 -1 -1 -1 -1 -1 -1 -1 -1 -1 -1 -1 -1 -1 -2 -2 -2 -2 -2 -3 -3 -3
-4 -4 -4 -4 -4 -4 -3 -3 -3 -3 -2 -2 -1 -1 -1 -1 -1 -1 -1 -1 -1 -1 -1 -1 -1 -1 -1 -1 -1 -1 -1 -1 -1 -1 -2 -2 -2 -2 -2 -3 -3 -3 -4
-5 -5 -5 -5 -5 -4 -4 -4 -4 -3 -3 -3 -2 -2 -2 -1 -1 -1 -1 -1 -1 -1 -1 -1 -1 -1 -1 -1 -1 -1 -1 -1 -2 -2 -2 -2 -2 -2 -3 -3 -3 -3 -4
-5 -5 -5 -5 -5 -5 -5 -4 -4 -4 -3 -3 -3 -2 -2 -2 -2 -2 -2 -1 -1 -1 -1 -1 -1 -1 -1 -1 -1 -1 -1 -1 -2 -2 -2 -2 -2 -3 -3 -3 -4 -4 -4
-6 -6 -5 -5 -5 -5 -5 -5 -4 -4 -4 -4 -3 -3 -3 -2 -2 -2 -2 -2 -1 -1 -1 -1 -1 -1 -1 -1 -1 -2 -2 -2 -2 -2 -2 -3 -3 -3 -3 -4 -4 -4 -5
-6 -6 -6 -6 -6 -6 -5 -5 -5 -5 -4 -4 -4 -3 -3 -3 -3 -2 -2 -2 -2 -2 -2 -2 -2 -2 -2 -2 -2 -2 -2 -2 -2 -2 -3 -3 -3 -3 -4 -4 -4 -5 -5
-6 -6 -6 -6 -6 -6 -6 -5 -5 -5 -5 -5 -4 -4 -4 -3 -3 -3 -2 -2 -2 -2 -2 -2 -2 -2 -2 -2 -2 -2 -2 -2 -2 -3 -3 -3 -4 -4 -4 -4 -5 -5 -5
-7 -7 -7 -7 -7 -6 -6 -6 -5 -5 -5 -5 -5 -4 -4 -4 -3 -3 -3 -3 -3 -2 -2 -2 -2 -2 -2 -2 -2 -2 -2 -3 -3 -3 -3 -4 -4 -4 -4 -5 -5 -5 -6
-7 -7 -7 -7 -7 -7 -6 -6 -6 -6 -6 -5 -5 -5 -4 -4 -4 -3 -3 -3 -3 -3 -3 -3 -3 -3 -3 -3 -3 -3 -3 -3 -3 -4 -4 -4 -4 -5 -5 -5 -6 -6 -7
Wind_Speed
2 2 2 2 3 4 5 6 7 7 9 10 10 10 10 10 9 8 7 8 7 6 6 6 6 5 4 3 3 3 3 4 6 3 1 2 3 3 2 2 2 2 3
3 2 1 1 2 3 4 5 6 7 8 9 10 10 10 10 9 9 8 8 8 8 7 7 6 5 5 4 3 4 3 4 4 5 2 3 3 3 2 2 1 1 2
3 2 2 1 1 2 3 4 5 6 7 8 9 9 9 9 9 8 8 8 8 7 7 7 7 6 6 5 4 4 3 3 3 4 2 2 1 2 2 1 1 0 1
4 2 1 0 1 1 2 3 5 6 7 8 8 8 8 8 8 8 8 8 7 6 6 6 6 6 6 5 4 4 3 4 4 4 3 2 2 2 2 2 2 1 1
5 3 2 2 1 1 3 4 4 5 6 7 7 7 8 7 7 9 8 8 8 7 7 6 5 5 5 4 4 4 4 4 4 4 3 3 3 3 3 2 2 2 2
5 4 3 2 2 2 3 4 5 5 6 6 7 8 8 6 9 10 8 8 8 8 7 6 6 6 6 6 5 3 3 4 4 4 4 5 5 4 3 3 2 3 3
6 5 4 3 3 2 3 4 6 6 7 7 7 8 8 8 11 12 10 7 7 7 7 7 6 6 7 6 6 6 4 2 2 4 5 5 4 4 4 4 4 3 2
6 5 5 4 4 3 4 5 6 6 7 7 8 8 8 9 12 13 12 8 7 7 7 7 7 8 7 7 6 5 4 3 2 3 3 2 2 3 4 3 3 2 1
6 6 6 5 5 5 5 6 6 6 7 7 7 8 8 9 13 13 12 7 6 7 7 7 8 8 10 10 7 6 5 4 3 2 2 3 4 4 4 3 3 3 3
8 8 7 7 6 6 6 6 6 6 7 6 6 7 8 9 13 14 14 7 7 7 7 7 9 9 11 13 9 8 7 6 5 5 5 5 5 5 4 3 3 3 2
9 9 8 7 7 7 6 5 6 6 6 7 8 8 8 9 12 16 16 9 8 8 7 7 7 12 13 13 11 7 6 6 6 5 5 4 4 3 3 3 2 2 2
9 9 9 8 6 5 6 6 6 7 7 8 8 8 7 9 11 14 17 15 11 9 8 7 8 13 14 13 11 9 9 8 5 5 5 5 5 4 3 3 2 1 1
10 10 9 8 7 6 6 6 6 6 7 7 7 8 7 7 9 15 17 18 16 9 7 9 10 13 13 11 12 12 10 7 6 6 6 5 4 4 4 3 3 2 2
10 10 8 8 7 6 5 6 6 7 7 7 8 8 8 7 8 9 10 12 15 12 8 10 12 12 10 9 10 10 9 8 7 6 6 5 4 4 5 4 4 4 3
10 9 8 7 7 7 6 7 8 8 8 8 8 8 8 9 12 15 12 10 10 10 9 7 7 8 9 9 8 8 8 8 8 7 6 6 6 6 5 5 4 4 4
10 9 7 7 7 7 7 7 9 10 12 12 11 9 8 10 12 17 19 17 16 16 11 8 9 10 10 10 10 9 9 9 8 8 7 7 7 7 6 5 5 6 6
10 10 8 8 7 7 7 7 7 8 11 13 14 14 12 12 13 16 17 18 18 18 11 9 10 10 10 10 9 9 10 9 8 8 8 7 7 7 7 7 7 7 6
11 10 10 8 8 8 7 7 7 7 6 6 9 14 14 13 13 15 17 15 12 14 10 10 10 10 10 10 9 9 9 8 9 9 8 8 8 8 8 8 8 8 7
10 9 8 8 8 8 8 7 7 7 7 6 5 7 11 12 13 15 15 10 10 10 11 10 10 10 9 9 9 9 9 9 9 9 9 9 9 9 9 8 8 10 9
9 11 11 9 8 8 7 7 7 7 7 6 6 5 5 6 6 7 9 8 9 9 10 10 10 10 10 9 9 9 9 9 9 9 9 9 9 9 9 10 9 8 9
9 10 11 9 8 8 7 7 7 7 7 7 6 7 8 6 7 7 8 8 9 9 9 9 9 10 10 9 9 10 10 9 9 9 9 9 9 9 9 9 9 9 8
8 8 8 8 8 7 7 7 7 7 7 7 6 6 11 7 6 6 7 7 8 8 8 8 8 8 9 9 9 9 10 10 9 9 9 9 9 9 9 9 9 8 8
8 8 8 8 7 9 8 7 6 6 6 6 5 5 5 6 6 6 6 6 6 7 7 7 8 7 8 8 9 9 9 10 9 9 9 9 9 9 9 9 10 9 9
8 8 8 7 7 7 7 6 6 6 6 5 5 5 4 4 5 5 5 5 5 5 6 6 7 8 9 8 8 10 10 9 10 9 11 9 9 8 8 8 9 10 10
7 7 7 7 7 7 6 6 6 5 5 5 4 4 4 4 4 4 4 4 4 5 5 5 5 7 9 10 9 9 12 14 13 11 10 9 9 9 9 9 8 8 9
7 7 7 6 6 6 6 6 5 5 5 4 4 4 4 4 3 3 3 3 3 4 4 4 5 6 7 8 9 10 12 14 15 14 11 8 8 8 9 8 9 8 8
Wind_Direction
81 120 152 159 172 177 183 184 184 181 180 179 174 172 173 173 173 173 172 170 176 176 177 183 183 178 180 183 191 208 223 236 251 244 186 180 188 180 148 110 70 45 57
40 48 75 105 155 174 181 180 178 177 177 175 171 170 173 174 174 174 170 175 179 178 179 180 179 176 182 182 191 208 219 226 245 247 208 190 198 185 167 144 86 50 45
26 35 51 84 164 180 185 180 178 176 173 170 170 171 172 173 174 175 173 175 178 179 181 184 183 183 189 188 194 203 212 222 235 243 221 182 179 173 175 168 160 134 55
11 13 18 333 236 201 191 184 181 178 174 172 171 171 172 171 173 171 170 173 172 172 177 182 184 190 194 189 192 200 207 219 223 228 219 198 193 182 198 203 204 197 220
355 348 342 328 274 203 194 188 182 181 178 172 169 170 171 173 175 173 171 173 172 172 173 177 178 177 177 181 187 195 204 218 220 220 218 207 203 198 206 194 207 197 206
343 334 329 316 287 226 205 193 187 184 179 175 178 177 178 180 173 173 171 174 176 177 174 170 166 165 168 172 174 180 205 220 219 219 222 222 216 205 187 188 189 204 212
340 331 323 307 283 253 221 205 198 193 186 185 186 185 187 180 175 178 180 177 179 179 175 172 173 174 174 175 167 164 171 195 245 240 237 231 217 201 188 193 199 218 211
334 329 319 304 284 264 236 220 212 203 197 195 193 190 189 185 183 183 180 179 178 178 182 184 184 182 185 183 180 180 183 181 193 229 240 233 209 175 183 195 188 180 163
332 326 315 298 280 262 244 232 220 210 206 204 198 194 193 190 188 185 180 176 179 183 187 193 194 193 186 186 185 185 187 178 142 124 107 121 126 145 164 166 173 193 205
326 318 308 293 277 264 253 242 230 216 211 205 203 201 199 196 191 191 186 184 186 186 188 195 201 199 189 190 194 194 197 189 173 159 153 149 152 155 178 202 191 197 201
316 311 304 293 280 269 260 245 232 219 209 208 206 205 204 203 197 197 195 193 193 190 191 194 197 199 198 197 200 204 201 187 183 183 181 177 176 175 178 181 184 196 204
311 307 303 298 288 272 259 246 232 219 212 212 210 209 208 206 205 203 203 203 197 195 198 196 194 195 200 201 201 200 191 187 187 191 197 198 196 191 181 169 160 153 152
307 304 302 299 289 274 260 248 235 223 219 215 212 213 211 206 207 209 208 207 204 201 200 194 190 194 199 204 206 198 193 196 196 202 206 205 197 183 166 158 158 163 181
302 301 298 295 289 278 264 249 238 230 225 220 217 217 214 208 206 202 205 208 206 204 197 193 194 196 199 202 200 201 204 204 204 210 207 197 179 176 189 188 192 192 208
296 294 292 288 283 278 266 253 246 242 238 232 226 220 214 215 211 201 196 200 198 193 179 179 185 189 197 200 202 203 202 202 208 210 203 197 194 195 196 193 198 199 215
292 291 288 286 282 277 275 272 254 249 251 248 244 234 228 226 212 206 206 204 199 187 179 188 195 199 202 202 201 203 204 206 206 203 203 204 203 201 198 193 198 210 221
285 287 285 281 277 275 273 270 274 263 249 245 241 237 232 226 217 210 207 205 201 192 193 199 202 203 204 204 204 204 206 205 201 202 203 203 203 204 202 203 204 212 221
283 281 278 275 274 272 270 268 266 265 264 258 243 237 233 228 220 211 206 200 202 200 203 204 206 205 205 205 205 206 205 201 200 204 204 203 202 203 206 209 209 212 217
282 278 276 275 273 271 268 266 264 261 259 260 256 239 230 227 221 214 204 203 202 203 204 206 206 205 205 205 206 205 204 203 200 200 203 203 202 204 210 213 213 214 216
279 275 276 275 273 269 264 260 261 258 256 254 247 239 220 216 218 211 207 205 207 208 207 207 206 205 204 204 203 202 204 205 202 204 204 203 203 205 211 212 212 212 214
285 282 275 273 269 266 263 259 257 256 255 255 252 236 220 220 221 216 210 208 210 211 209 208 207 205 204 202 200 201 202 205 205 204 204 203 201 204 209 211 212 214 217
283 282 277 273 272 269 266 262 258 255 256 258 259 247 232 228 225 222 218 214 213 213 210 208 208 205 201 200 199 200 204 207 206 204 203 202 201 204 205 208 210 210 213
282 282 281 278 276 273 271 267 261 257 257 256 255 250 238 230 227 225 222 218 214 212 207 206 207 206 201 198 198 199 204 207 204 198 198 199 200 202 203 207 209 210 213
283 281 280 280 279 275 272 269 263 258 256 255 255 252 245 236 231 226 222 218 215 211 207 206 206 203 196 193 198 201 204 201 194 196 195 197 198 200 203 207 210 212 215
283 282 281 281 280 277 275 272 267 261 257 255 253 252 247 241 238 234 226 219 212 211 207 204 204 202 200 197 196 199 203 199 195 193 193 197 199 200 202 206 208 210 212
288 285 284 283 282 281 279 276 271 265 261 258 253 251 248 242 240 236 227 220 213 208 202 201 199 195 192 198 199 199 201 202 201 197 193 194 196 199 200 205 208 210 212
Height
1466 1468 1469 1470 1472 1473 1474 1476 1478 1480 1481 1483 1485 1487 1490 1492 1495 1496 1498 1500 1501 1502 1503 1503 1503 1503 1503 1503 1503 1503 1504 1504 1504 1504 1503 1503 1503 1503 1503 1503 1502 1502 1501
1464 1466 1467 1468 1469 1470 1471 1473 1474 1475 1477 1479 1481 1483 1485 1488 1490 1492 1493 1495 1496 1497 1497 1498 1498 1498 1498 1498 1498 1499 1499 1499 1499 1499 1499 1499 1499 1499 1499 1499 1499 1499 1498
1463 1464 1465 1465 1466 1467 1468 1469 1470 1472 1473 1475 1477 1479 1481 1483 1485 1487 1489 1490 1491 1492 1492 1493 1493 1493 1493 1493 1493 1494 1494 1494 1495 1495 1495 1495 1495 1496 1496 1496 1496 1495 1495
1462 1462 1463 1463 1463 1464 1465 1465 1466 1468 1469 1471 1473 1475 1477 1479 1481 1482 1484 1485 1486 1486 1487 1487 1488 1488 1489 1489 1489 1489 1489 1490 1490 1490 1491 1491 1491 1492 1492 1493 1493 1492 1492
1460 1461 1460 1460 1461 1461 1462 1462 1463 1464 1465 1467 1469 1471 1473 1474 1476 1477 1479 1480 1481 1481 1481 1482 1483 1483 1484 1484 1484 1485 1485 1486 1486 1486 1487 1487 1488 1488 1489 1489 1489 1489 1489
1459 1458 1458 1458 1458 1458 1458 1459 1460 1461 1462 1463 1465 1467 1468 1470 1471 1473 1474 1475 1476 1476 1477 1477 1478 1479 1479 1480 1480 1480 1481 1482 1482 1482 1483 1484 1484 1485 1485 1486 1486 1487 1487
1456 1455 1455 1454 1454 1454 1454 1455 1456 1457 1458 1459 1460 1462 1463 1465 1467 1468 1469 1470 1471 1472 1472 1473 1473 1474 1475 1476 1476 1476 1477 1477 1478 1479 1479 1480 1481 1481 1482 1482 1483 1484 1484
1454 1452 1452 1451 1450 1450 1450 1451 1451 1452 1453 1454 1455 1457 1458 1460 1462 1463 1464 1465 1466 1467 1468 1468 1469 1470 1470 1471 1472 1472 1473 1473 1474 1475 1475 1476 1477 1478 1478 1480 1480 1481 1481
1450 1449 1448 1447 1446 1446 1446 1446 1447 1447 1448 1449 1451 1452 1453 1455 1456 1457 1459 1460 1461 1462 1463 1464 1465 1466 1466 1467 1468 1469 1469 1470 1470 1471 1472 1473 1473 1474 1476 1476 1477 1478 1478
1447 1445 1444 1443 1442 1442 1441 1441 1442 1442 1443 1444 1445 1446 1448 1449 1450 1452 1453 1454 1456 1457 1458 1459 1460 1461 1462 1463 1464 1465 1466 1467 1467 1468 1469 1470 1471 1472 1473 1474 1474 1475 1476
1443 1441 1440 1438 1437 1436 1436 1436 1436 1437 1437 1438 1439 1440 1441 1443 1444 1446 1447 1449 1450 1452 1453 1454 1455 1457 1458 1459 1461 1462 1463 1464 1464 1465 1466 1467 1468 1469 1470 1471 1472 1473 1474
1439 1437 1435 1433 1432 1431 1430 1430 1430 1431 1431 1432 1433 1433 1435 1436 1438 1439 1441 1444 1445 1447 1448 1450 1451 1452 1454 1455 1456 1458 1459 1460 1461 1462 1463 1465 1466 1467 1468 1469 1469 1470 1471
1434 1432 1430 1428 1427 1426 1425 1425 1425 1425 1425 1425 1426 1427 1428 1430 1431 1433 1435 1437 1439 1442 1443 1445 1447 1448 1449 1451 1452 1454 1455 1457 1458 1459 1461 1462 1463 1464 1465 1466 1467 1468 1468
1429 1426 1425 1423 1422 1421 1420 1419 1419 1418 1419 1419 1420 1421 1422 1423 1425 1427 1429 1431 1434 1436 1438 1440 1442 1443 1445 1446 1448 1449 1451 1453 1454 1456 1457 1458 1459 1461 1462 1463 1464 1465 1465
1424 1421 1419 1418 1416 1415 1414 1413 1413 1412 1413 1413 1414 1415 1416 1416 1418 1421 1422 1425 1427 1430 1432 1434 1436 1438 1439 1441 1443 1445 1446 1448 1450 1452 1453 1454 1456 1457 1458 1459 1460 1461 1462
1419 1416 1414 1412 1410 1409 1408 1407 1406 1406 1406 1407 1407 1409 1409 1411 1413 1414 1416 1419 1421 1424 1426 1427 1429 1431 1433 1435 1438 1439 1441 1443 1445 1447 1449 1450 1452 1453 1454 1455 1456 1457 1457
1414 1411 1409 1407 1405 1403 1402 1401 1400 1400 1400 1400 1401 1402 1403 1404 1406 1408 1410 1412 1415 1417 1419 1421 1423 1426 1428 1430 1432 1434 1436 1438 1440 1442 1444 1445 1447 1448 1449 1450 1451 1452 1453
1408 1406 1403 1401 1400 1398 1396 1395 1394 1394 1393 1393 1394 1395 1397 1398 1400 1402 1404 1407 1409 1411 1412 1415 1417 1419 1422 1424 1426 1429 1431 1433 1435 1436 1438 1440 1441 1443 1444 1445 1446 1447 1448
1402 1400 1398 1396 1394 1392 1391 1390 1389 1388 1388 1387 1388 1389 1390 1392 1394 1396 1397 1399 1401 1403 1406 1408 1411 1413 1416 1418 1420 1423 1425 1427 1429 1430 1432 1434 1435 1437 1438 1439 1440 1441 1442
1396 1394 1392 1390 1388 1386 1385 1384 1383 1382 1382 1382 1382 1383 1384 1385 1387 1389 1391 1392 1395 1397 1400 1402 1404 1407 1409 1412 1414 1416 1418 1420 1422 1424 1426 1427 1429 1430 1432 1433 1434 1435 1436
1390 1387 1385 1383 1382 1380 1379 1378 1377 1377 1376 1376 1377 1377 1378 1379 1380 1382 1384 1386 1388 1390 1393 1396 1398 1400 1403 1405 1407 1410 1412 1413 1415 1417 1419 1421 1422 1424 1425 1427 1428 1429 1430
1384 1381 1379 1377 1376 1374 1373 1372 1372 1371 1371 1371 1371 1372 1372 1373 1375 1376 1378 1380 1382 1384 1387 1389 1391 1394 1396 1398 1401 1403 1405 1407 1408 1410 1412 1414 1416 1417 1419 1420 1421 1422 1423
1378 1376 1374 1372 1370 1369 1368 1367 1366 1366 1365 1365 1365 1366 1367 1368 1369 1370 1372 1374 1376 1378 1380 1383 1385 1387 1389 1392 1394 1396 1398 1400 1402 1404 1406 1407 1409 1410 1412 1413 1414 1415 1416
1373 1371 1368 1367 1365 1364 1363 1362 1361 1360 1360 1360 1360 1361 1362 1362 1364 1365 1367 1368 1370 1372 1374 1376 1378 1381 1383 1385 1387 1389 1391 1394 1395 1397 1399 1400 1402 1403 1405 1406 1407 1408 1410
1368 1366 1364 1362 1360 1359 1358 1357 1356 1356 1356 1356 1356 1356 1357 1358 1359 1360 1362 1363 1365 1366 1368 1370 1372 1375 1377 1379 1381 1383 1385 1387 1389 1390 1392 1394 1395 1397 1398 1399 1400 1402 1403
1364 1362 1360 1358 1356 1355 1354 1353 1352 1352 1352 1352 1352 1352 1352 1353 1354 1356 1357 1358 1360 1362 1363 1365 1367 1369 1371 1373 1375 1377 1379 1380 1382 1384 1386 1387 1389 1390 1391 1393 1394 1395 1396